contact:dominique.lefevre@mio.osupytheas.fr, maurice.libes@osupytheas.fr, didier.mallarino@osupytheas.fr
Project:EMSO http://www.emso-fr.org/EMSO-France
Depth: 2436.0 m
Title:EMSO Ligure Ouest : Data MII capteur AQUADOPP
Date,Latitude,Longitude,X_East,Y_North,Z_Up,Amplitude_X,Amplitude_Y,Amplitude_Z,Batterie,SoundSpeed,Heading,Pitch,Roll,Pressure,TIS,Speed,Direction
, degrees North, degrees East, m.s-1, m.s-1,m.s-1, 1, 1, 1, Volt, m.s-1, degree, degree, degree, dbar, degree_C, m.s-1, degree
2023-09-19T00:04:03,42.805,6.029,-0.012,0.012,-0.024,101.0,101.0,101.0,13.4,1505.2,347.3,-0.8,1.8,2471.53,13.29,0.016,315.0
2023-09-19T00:07:03,42.805,6.029,0.001,0.011,-0.008,102.0,101.0,101.0,13.4,1505.2,334.4,-0.8,1.8,2471.547,13.29,0.011,5.2
2023-09-19T00:10:03,42.805,6.029,0.012,-0.017,-0.021,99.0,103.0,101.0,13.3,1505.2,333.8,-0.7,1.8,2471.55,13.29,0.02,144.8
2023-09-19T00:13:03,42.805,6.029,-0.011,0.024,-0.037,103.0,99.0,101.0,13.4,1505.2,335.9,-0.8,1.8,2471.48,13.3,0.026,335.4
2023-09-19T00:16:03,42.805,6.029,-0.001,-0.016,-0.009,102.0,101.0,102.0,13.4,1505.2,346.2,-0.7,1.8,2471.502,13.3,0.016,183.6
2023-09-19T00:19:03,42.805,6.029,-0.025,0.033,-0.013,100.0,101.0,101.0,13.4,1505.2,340.0,-0.8,1.8,2471.511,13.3,0.041,322.8
2023-09-19T00:22:03,42.805,6.029,-0.003,-0.002,-0.028,101.0,101.0,101.0,13.4,1505.2,345.4,-0.8,1.8,2471.503,13.3,0.003,236.3
2023-09-19T00:25:03,42.805,6.029,0.011,-0.009,-0.052,102.0,101.0,101.0,13.3,1505.2,355.7,-0.8,1.8,2471.47,13.3,0.014,129.3
2023-09-19T00:28:03,42.805,6.029,0.005,0.002,-0.019,102.0,101.0,101.0,13.4,1505.2,337.8,-0.7,1.8,2471.465,13.3,0.005,68.2
2023-09-19T00:31:03,42.805,6.029,-0.004,0.009,-0.012,102.0,102.0,100.0,13.4,1505.2,341.8,-0.7,1.8,2471.499,13.3,0.009,336.0
2023-09-19T00:34:03,42.805,6.029,0.012,0.018,-0.028,102.0,100.0,101.0,13.3,1505.2,354.9,-0.8,1.9,2471.485,13.3,0.021,33.7
2023-09-19T00:37:03,42.805,6.029,0.0,-0.001,0.0,102.0,101.0,100.0,13.4,1505.2,330.6,-0.8,1.8,2471.47,13.3,0.001,180.0
2023-09-19T00:40:03,42.805,6.029,0.021,0.014,-0.004,102.0,101.0,100.0,13.4,1505.2,335.7,-0.8,1.8,2471.464,13.3,0.025,56.3
2023-09-19T00:43:03,42.805,6.029,-0.003,0.023,-0.015,103.0,101.0,101.0,13.4,1505.2,328.7,-0.8,1.8,2471.462,13.3,0.023,352.6
2023-09-19T00:46:03,42.805,6.029,-0.011,0.019,-0.037,103.0,101.0,101.0,13.4,1505.2,329.8,-0.8,1.8,2471.476,13.3,0.021,329.9
2023-09-19T00:49:03,42.805,6.029,-0.001,-0.001,-0.046,102.0,100.0,101.0,13.3,1505.2,335.9,-0.8,1.8,2471.451,13.29,0.001,225.0
2023-09-19T00:52:03,42.805,6.029,0.013,0.007,-0.014,102.0,102.0,100.0,13.4,1505.2,325.5,-0.8,1.8,2471.46,13.29,0.014,61.7
2023-09-19T00:55:03,42.805,6.029,0.007,0.002,0.001,100.0,100.0,111.0,13.3,1505.2,345.4,-0.7,1.8,2471.486,13.29,0.007,74.1
2023-09-19T00:58:03,42.805,6.029,0.014,-0.035,-0.009,102.0,100.0,101.0,13.3,1505.2,349.3,-0.8,1.8,2471.489,13.29,0.037,158.2
2023-09-19T01:04:03,42.805,6.029,-0.019,0.003,-0.05,102.0,102.0,102.0,13.4,1505.2,353.2,-0.7,1.8,2471.477,13.29,0.019,279.0
2023-09-19T01:07:03,42.805,6.029,0.009,-0.009,-0.028,103.0,103.0,99.0,13.4,1505.2,354.7,-0.7,1.8,2471.494,13.29,0.012,135.0
2023-09-19T01:10:03,42.805,6.029,0.001,0.002,-0.044,103.0,101.0,100.0,13.3,1505.2,350.7,-0.8,1.8,2471.485,13.29,0.002,26.6
2023-09-19T01:13:03,42.805,6.029,0.005,0.015,-0.019,103.0,100.0,101.0,13.3,1505.2,334.7,-0.7,1.8,2471.456,13.29,0.015,18.4
2023-09-19T01:16:03,42.805,6.029,0.001,-0.027,-0.06,101.0,102.0,101.0,13.4,1505.2,346.2,-0.8,1.8,2471.465,13.29,0.027,177.9
2023-09-19T01:19:03,42.805,6.029,-0.009,-0.009,-0.006,100.0,102.0,101.0,13.4,1505.2,352.1,-0.8,1.8,2471.458,13.29,0.012,225.0
2023-09-19T01:22:03,42.805,6.029,0.013,0.0,-0.014,101.0,102.0,100.0,13.4,1505.2,347.3,-0.8,1.8,2471.435,13.3,0.013,90.0
2023-09-19T01:25:03,42.805,6.029,-0.009,-0.006,-0.035,102.0,101.0,100.0,13.3,1505.2,349.6,-0.8,1.8,2471.466,13.3,0.01,236.3
2023-09-19T01:28:03,42.805,6.029,-0.023,-0.004,-0.048,101.0,100.0,102.0,13.3,1505.2,340.8,-0.8,1.8,2471.471,13.3,0.023,260.1
2023-09-19T01:31:03,42.805,6.029,-0.003,0.012,-0.005,102.0,100.0,101.0,13.4,1505.2,344.3,-0.8,1.8,2471.45,13.3,0.012,346.0
2023-09-19T01:34:03,42.805,6.029,0.009,-0.007,-0.049,101.0,101.0,101.0,13.3,1505.2,343.2,-0.8,1.8,2471.437,13.3,0.011,127.9
2023-09-19T01:37:03,42.805,6.029,-0.005,0.007,-0.012,101.0,101.0,101.0,13.4,1505.2,335.9,-0.8,1.8,2471.462,13.3,0.008,324.5
2023-09-19T01:40:03,42.805,6.029,0.0,0.007,-0.029,104.0,102.0,100.0,13.3,1505.2,336.4,-0.8,1.8,2471.402,13.3,0.007,0.0
2023-09-19T01:43:03,42.805,6.029,-0.012,0.007,0.0,101.0,101.0,101.0,13.3,1505.2,343.1,-0.8,1.8,2471.45,13.3,0.013,300.3
2023-09-19T01:46:03,42.805,6.029,-0.01,0.011,-0.028,101.0,101.0,100.0,13.4,1505.2,333.4,-0.8,1.8,2471.43,13.3,0.014,317.7
2023-09-19T01:49:03,42.805,6.029,0.012,-0.011,-0.03,101.0,101.0,100.0,13.3,1505.2,339.1,-0.8,1.8,2471.42,13.3,0.016,132.5
2023-09-19T01:52:03,42.805,6.029,0.012,0.004,-0.023,101.0,101.0,101.0,13.4,1505.2,348.2,-0.7,1.8,2471.397,13.3,0.012,71.6
2023-09-19T01:55:03,42.805,6.029,0.028,-0.028,-0.051,103.0,99.0,100.0,13.4,1505.2,337.2,-0.8,1.8,2471.431,13.3,0.039,135.0
2023-09-19T01:58:03,42.805,6.029,0.002,0.027,-0.006,100.0,102.0,101.0,13.3,1505.2,335.0,-0.8,1.8,2471.436,13.3,0.027,4.2
2023-09-19T02:04:03,42.805,6.029,0.002,0.016,-0.018,103.0,101.0,100.0,13.4,1505.2,344.2,-0.8,1.8,2471.443,13.3,0.016,7.1
2023-09-19T02:07:03,42.805,6.029,0.004,-0.006,-0.033,101.0,101.0,101.0,13.3,1505.2,344.9,-0.8,1.8,2471.5,13.3,0.007,146.3
2023-09-19T02:10:03,42.805,6.029,-0.002,0.018,0.001,102.0,101.0,103.0,13.3,1505.2,348.8,-0.7,1.8,2471.44,13.3,0.018,353.7
2023-09-19T02:13:03,42.805,6.029,0.002,-0.003,-0.025,102.0,101.0,100.0,13.3,1505.2,325.3,-0.8,1.8,2471.476,13.3,0.003,146.3
2023-09-19T02:16:03,42.805,6.029,0.016,-0.013,-0.025,101.0,101.0,101.0,13.3,1505.2,328.7,-0.8,1.8,2471.416,13.3,0.02,129.1
2023-09-19T02:19:03,42.805,6.029,0.0,-0.008,-0.03,101.0,101.0,100.0,13.4,1505.2,331.8,-0.7,1.8,2471.434,13.3,0.008,180.0
2023-09-19T02:22:03,42.805,6.029,0.003,-0.026,-0.054,102.0,101.0,101.0,13.4,1505.2,326.5,-0.8,1.8,2471.435,13.3,0.026,173.4
2023-09-19T02:25:03,42.805,6.029,0.03,-0.014,-0.013,102.0,102.0,101.0,13.3,1505.2,344.8,-0.8,1.8,2471.413,13.3,0.033,115.0
2023-09-19T02:28:03,42.805,6.029,-0.008,0.001,-0.031,101.0,102.0,100.0,13.4,1505.2,335.1,-0.8,1.8,2471.433,13.3,0.008,277.1
2023-09-19T02:31:03,42.805,6.029,-0.011,0.0,-0.038,102.0,101.0,100.0,13.4,1505.2,343.7,-0.8,1.8,2471.428,13.3,0.011,270.0
2023-09-19T02:34:03,42.805,6.029,0.01,-0.008,-0.041,102.0,100.0,102.0,13.3,1505.2,341.5,-0.8,1.8,2471.404,13.3,0.012,128.7
2023-09-19T02:37:03,42.805,6.029,-0.006,0.004,-0.03,102.0,100.0,101.0,13.4,1505.2,324.4,-0.8,1.8,2471.4,13.3,0.007,303.7
2023-09-19T02:40:03,42.805,6.029,-0.038,0.019,-0.034,101.0,103.0,101.0,13.3,1505.2,337.3,-0.8,1.8,2471.374,13.3,0.042,296.6
2023-09-19T02:43:03,42.805,6.029,-0.006,-0.019,-0.05,101.0,101.0,100.0,13.3,1505.2,338.9,-0.8,1.8,2471.387,13.3,0.019,197.5
2023-09-19T02:46:03,42.805,6.029,0.005,-0.008,-0.009,103.0,100.0,101.0,13.4,1505.2,350.9,-0.7,1.8,2471.366,13.3,0.009,148.0
2023-09-19T02:49:03,42.805,6.029,-0.011,0.003,-0.055,100.0,102.0,101.0,13.4,1505.2,345.2,-0.8,1.8,2471.371,13.3,0.011,285.3
2023-09-19T02:52:03,42.805,6.029,-0.007,-0.001,-0.049,100.0,102.0,102.0,13.4,1505.2,347.9,-0.7,1.8,2471.386,13.3,0.007,261.9
2023-09-19T02:55:03,42.805,6.029,0.011,0.009,0.002,101.0,102.0,100.0,13.4,1505.2,324.7,-0.7,1.8,2471.397,13.3,0.014,50.7
2023-09-19T02:58:03,42.805,6.029,0.019,0.005,0.008,102.0,101.0,101.0,13.3,1505.2,347.8,-0.8,1.8,2471.38,13.3,0.019,75.3
2023-09-19T03:04:03,42.805,6.029,-0.011,-0.003,-0.048,102.0,101.0,101.0,13.3,1505.2,344.6,-0.8,1.8,2471.443,13.29,0.011,254.7
2023-09-19T03:07:03,42.805,6.029,-0.002,-0.013,-0.051,102.0,101.0,101.0,13.4,1505.2,331.6,-0.8,1.8,2471.472,13.29,0.013,188.7
2023-09-19T03:10:03,42.805,6.029,0.027,-0.008,-0.008,101.0,101.0,100.0,13.3,1505.2,354.0,-0.8,1.8,2471.409,13.29,0.028,106.5
2023-09-19T03:13:03,42.805,6.029,-0.001,0.007,-0.027,101.0,101.0,100.0,13.4,1505.2,345.9,-0.8,1.8,2471.454,13.29,0.007,351.9
2023-09-19T03:16:03,42.805,6.029,0.003,-0.002,0.012,101.0,101.0,101.0,13.4,1505.2,344.8,-0.8,1.8,2471.401,13.29,0.003,123.7
2023-09-19T03:19:03,42.805,6.029,-0.015,0.036,0.0,102.0,102.0,101.0,13.4,1505.2,345.1,-0.8,1.8,2471.405,13.29,0.039,337.4
2023-09-19T03:22:03,42.805,6.029,0.005,0.009,-0.037,101.0,101.0,101.0,13.3,1505.2,339.7,-0.7,1.8,2471.411,13.29,0.01,29.1
2023-09-19T03:25:03,42.805,6.029,0.014,-0.008,-0.015,101.0,103.0,100.0,13.4,1505.2,347.6,-0.8,1.9,2471.446,13.29,0.016,119.7
2023-09-19T03:28:03,42.805,6.029,-0.002,-0.003,-0.03,101.0,102.0,100.0,13.3,1505.2,341.8,-0.8,1.8,2471.374,13.29,0.003,213.7
2023-09-19T03:31:03,42.805,6.029,0.005,0.008,-0.035,101.0,101.0,101.0,13.3,1505.2,340.8,-0.8,1.8,2471.406,13.29,0.009,32.0
2023-09-19T03:34:03,42.805,6.029,-0.015,-0.005,-0.066,102.0,102.0,101.0,13.4,1505.2,337.3,-0.8,1.8,2471.401,13.29,0.015,251.6
2023-09-19T03:37:03,42.805,6.029,0.006,0.008,-0.02,102.0,101.0,100.0,13.4,1505.2,328.8,-0.7,1.8,2471.439,13.29,0.01,36.9
2023-09-19T03:40:03,42.805,6.029,-0.014,0.003,-0.021,101.0,101.0,101.0,13.4,1505.2,329.0,-0.7,1.8,2471.445,13.29,0.014,282.1
2023-09-19T03:43:03,42.805,6.029,-0.014,-0.001,-0.026,101.0,103.0,102.0,13.3,1505.2,344.8,-0.7,1.8,2471.427,13.29,0.014,265.9
2023-09-19T03:46:03,42.805,6.029,0.009,0.006,-0.004,102.0,101.0,101.0,13.4,1505.2,333.8,-0.8,1.8,2471.391,13.29,0.01,56.3
2023-09-19T03:49:03,42.805,6.029,-0.005,0.012,0.011,101.0,102.0,100.0,13.4,1505.2,345.4,-0.7,1.8,2471.394,13.29,0.013,337.4
2023-09-19T03:52:03,42.805,6.029,0.014,0.01,0.009,102.0,100.0,101.0,13.3,1505.2,347.5,-0.8,1.8,2471.362,13.29,0.017,54.5
2023-09-19T03:55:03,42.805,6.029,-0.001,0.009,-0.01,101.0,102.0,100.0,13.3,1505.2,344.9,-0.8,1.8,2471.38,13.29,0.009,353.7
2023-09-19T03:58:03,42.805,6.029,-0.022,0.004,-0.054,100.0,102.0,101.0,13.3,1505.2,351.1,-0.8,1.8,2471.397,13.29,0.022,280.3
2023-09-19T04:04:03,42.805,6.029,-0.014,-0.01,-0.046,101.0,102.0,101.0,13.4,1505.2,327.0,-0.8,1.8,2471.457,13.29,0.017,234.5
2023-09-19T04:07:03,42.805,6.029,-0.023,-0.002,-0.014,102.0,99.0,101.0,13.4,1505.2,324.6,-0.8,1.8,2471.423,13.29,0.023,265.0
2023-09-19T04:10:03,42.805,6.029,-0.005,0.007,-0.03,101.0,101.0,100.0,13.4,1505.2,342.1,-0.8,1.8,2471.481,13.29,0.008,324.5
2023-09-19T04:13:03,42.805,6.029,-0.012,0.015,-0.026,103.0,102.0,100.0,13.4,1505.2,337.0,-0.7,1.8,2471.394,13.29,0.019,321.3
2023-09-19T04:16:03,42.805,6.029,-0.017,0.005,-0.039,101.0,101.0,101.0,13.3,1505.2,352.8,-0.7,1.8,2471.401,13.29,0.017,286.4
2023-09-19T04:19:03,42.805,6.029,0.012,0.004,-0.024,101.0,100.0,101.0,13.4,1505.2,345.7,-0.8,1.8,2471.416,13.29,0.012,71.6
2023-09-19T04:22:03,42.805,6.029,-0.014,-0.001,-0.028,101.0,102.0,107.0,13.3,1505.2,324.2,-0.8,1.8,2471.428,13.29,0.014,265.9
2023-09-19T04:25:03,42.805,6.029,-0.011,0.007,-0.037,102.0,101.0,100.0,13.4,1505.2,340.8,-0.8,1.8,2471.401,13.29,0.013,302.5
2023-09-19T04:28:03,42.805,6.029,-0.025,0.02,-0.041,101.0,101.0,101.0,13.4,1505.2,346.7,-0.8,1.9,2471.394,13.29,0.032,308.7
2023-09-19T04:31:03,42.805,6.029,-0.013,0.024,-0.006,101.0,104.0,100.0,13.4,1505.2,351.8,-0.8,1.8,2471.385,13.29,0.027,331.6
2023-09-19T04:34:03,42.805,6.029,-0.02,-0.002,-0.042,100.0,102.0,100.0,13.3,1505.2,324.6,-0.7,1.8,2471.418,13.29,0.02,264.3
2023-09-19T04:37:03,42.805,6.029,-0.002,-0.004,-0.026,101.0,102.0,101.0,13.3,1505.2,329.2,-0.8,1.8,2471.393,13.29,0.004,206.6
2023-09-19T04:40:03,42.805,6.029,0.009,0.007,-0.021,101.0,103.0,101.0,13.4,1505.2,341.5,-0.8,1.8,2471.405,13.29,0.011,52.1
2023-09-19T04:43:03,42.805,6.029,-0.034,-0.004,-0.057,101.0,102.0,100.0,13.4,1505.2,335.2,-0.7,1.8,2471.394,13.29,0.034,263.3
2023-09-19T04:46:03,42.805,6.029,0.01,0.01,-0.035,102.0,100.0,101.0,13.3,1505.2,343.7,-0.8,1.8,2471.393,13.29,0.014,45.0
2023-09-19T04:49:03,42.805,6.029,-0.009,0.01,-0.028,101.0,100.0,100.0,13.3,1505.2,342.8,-0.8,1.8,2471.422,13.29,0.013,318.0
2023-09-19T04:52:03,42.805,6.029,-0.014,0.007,-0.038,102.0,102.0,100.0,13.4,1505.2,335.9,-0.8,1.8,2471.43,13.29,0.015,296.6
2023-09-19T04:55:03,42.805,6.029,-0.008,0.01,-0.004,102.0,100.0,101.0,13.3,1505.2,348.2,-0.8,1.8,2471.389,13.29,0.012,321.3
2023-09-19T04:58:03,42.805,6.029,-0.006,0.003,-0.014,102.0,101.0,100.0,13.4,1505.2,336.1,-0.7,1.8,2471.443,13.29,0.006,296.6
2023-09-19T05:04:03,42.805,6.029,-0.011,-0.022,-0.023,101.0,101.0,103.0,13.4,1505.2,345.9,-0.8,1.8,2471.47,13.29,0.024,206.6
2023-09-19T05:07:03,42.805,6.029,0.01,-0.001,0.0,101.0,100.0,100.0,13.4,1505.2,349.1,-0.8,1.8,2471.477,13.29,0.01,95.7
2023-09-19T05:10:03,42.805,6.029,-0.015,0.012,0.01,101.0,101.0,101.0,13.4,1505.2,326.3,-0.7,1.9,2471.43,13.29,0.019,308.7
2023-09-19T05:13:03,42.805,6.029,0.015,0.015,-0.018,101.0,102.0,101.0,13.4,1505.2,331.0,-0.8,1.8,2471.46,13.29,0.021,45.0
2023-09-19T05:16:03,42.805,6.029,0.016,0.006,0.006,101.0,102.0,100.0,13.4,1505.2,349.7,-0.8,1.8,2471.488,13.29,0.017,69.4
2023-09-19T05:19:03,42.805,6.029,0.0,0.0,-0.022,100.0,102.0,102.0,13.4,1505.2,339.1,-0.8,1.8,2471.442,13.29,0.0,0.0
2023-09-19T05:22:03,42.805,6.029,0.001,-0.003,-0.025,102.0,100.0,100.0,13.4,1505.2,349.5,-0.8,1.8,2471.44,13.29,0.003,161.6
2023-09-19T05:25:03,42.805,6.029,-0.031,0.026,-0.04,100.0,102.0,100.0,13.4,1505.2,330.6,-0.8,1.8,2471.449,13.29,0.04,310.0
2023-09-19T05:28:03,42.805,6.029,0.002,-0.015,-0.038,101.0,102.0,103.0,13.3,1505.2,345.4,-0.7,1.8,2471.419,13.29,0.015,172.4
2023-09-19T05:31:03,42.805,6.029,-0.015,-0.004,-0.071,102.0,101.0,100.0,13.4,1505.2,340.6,-0.8,1.8,2471.448,13.29,0.015,255.1
2023-09-19T05:34:03,42.805,6.029,-0.012,0.008,-0.002,100.0,101.0,101.0,13.4,1505.2,348.0,-0.8,1.8,2471.468,13.29,0.014,303.7
2023-09-19T05:37:03,42.805,6.029,0.001,0.003,-0.036,101.0,102.0,100.0,13.4,1505.2,340.4,-0.8,1.8,2471.426,13.29,0.003,18.4
2023-09-19T05:40:03,42.805,6.029,0.002,0.012,0.0,100.0,102.0,100.0,13.4,1505.2,350.7,-0.8,1.8,2471.496,13.29,0.012,9.5
2023-09-19T05:43:03,42.805,6.029,0.003,0.023,0.012,101.0,103.0,100.0,13.3,1505.2,328.2,-0.8,1.9,2471.412,13.29,0.023,7.4
2023-09-19T05:46:03,42.805,6.029,0.005,0.002,-0.036,101.0,101.0,100.0,13.4,1505.2,327.4,-0.8,1.8,2471.458,13.29,0.005,68.2
2023-09-19T05:49:03,42.805,6.029,-0.018,0.0,-0.035,103.0,102.0,100.0,13.3,1505.2,334.8,-0.8,1.8,2471.472,13.29,0.018,270.0
2023-09-19T05:52:03,42.805,6.029,-0.025,-0.012,-0.06,101.0,102.0,101.0,13.3,1505.2,345.4,-0.7,1.8,2471.457,13.29,0.027,244.4
2023-09-19T05:55:03,42.805,6.029,-0.033,0.019,-0.032,102.0,102.0,100.0,13.3,1505.2,345.0,-0.7,1.8,2471.421,13.29,0.038,299.9
2023-09-19T05:58:03,42.805,6.029,-0.012,0.006,-0.028,102.0,103.0,101.0,13.4,1505.2,353.1,-0.8,1.8,2471.474,13.29,0.013,296.6
2023-09-19T06:04:03,42.805,6.029,0.019,-0.013,-0.025,102.0,102.0,100.0,13.4,1505.2,332.2,-0.7,1.8,2471.512,13.29,0.023,124.4
2023-09-19T06:07:03,42.805,6.029,-0.017,0.011,-0.025,101.0,102.0,101.0,13.4,1505.2,327.3,-0.8,1.8,2471.497,13.29,0.02,302.9
2023-09-19T06:10:03,42.805,6.029,0.003,0.018,-0.018,101.0,102.0,101.0,13.4,1505.2,345.7,-0.8,1.8,2471.485,13.29,0.018,9.5
2023-09-19T06:13:03,42.805,6.029,-0.03,0.027,-0.041,102.0,102.0,102.0,13.3,1505.2,341.2,-0.7,1.8,2471.518,13.29,0.04,312.0
2023-09-19T06:16:03,42.805,6.029,0.003,0.018,-0.019,102.0,102.0,101.0,13.4,1505.2,355.0,-0.8,1.8,2471.459,13.29,0.018,9.5
2023-09-19T06:19:03,42.805,6.029,-0.011,-0.001,-0.011,102.0,102.0,100.0,13.3,1505.2,344.0,-0.7,1.8,2471.492,13.29,0.011,264.8
2023-09-19T06:22:03,42.805,6.029,0.0,0.028,0.0,102.0,102.0,102.0,13.4,1505.2,343.7,-0.7,1.8,2471.454,13.29,0.028,0.0
2023-09-19T06:25:03,42.805,6.029,-0.005,0.009,-0.02,101.0,102.0,102.0,13.4,1505.2,346.2,-0.8,1.8,2471.488,13.29,0.01,330.9
2023-09-19T06:28:03,42.805,6.029,-0.012,0.0,-0.024,102.0,101.0,102.0,13.4,1505.2,345.9,-0.8,1.8,2471.474,13.29,0.012,270.0
2023-09-19T06:31:03,42.805,6.029,-0.019,0.01,-0.028,102.0,104.0,101.0,13.4,1505.2,345.0,-0.7,1.8,2471.485,13.29,0.021,297.8
2023-09-19T06:34:03,42.805,6.029,-0.022,0.015,-0.029,102.0,102.0,102.0,13.4,1505.2,354.7,-0.8,1.8,2471.507,13.29,0.026,304.3
2023-09-19T06:37:03,42.805,6.029,-0.022,0.024,-0.006,102.0,103.0,101.0,13.4,1505.2,328.3,-0.7,1.8,2471.501,13.29,0.032,317.5
2023-09-19T06:40:03,42.805,6.029,0.01,0.022,-0.009,103.0,102.0,101.0,13.4,1505.2,346.5,-0.8,1.8,2471.491,13.29,0.024,24.4
2023-09-19T06:43:03,42.805,6.029,-0.004,0.013,-0.032,103.0,102.0,101.0,13.3,1505.2,335.2,-0.8,1.8,2471.533,13.29,0.013,342.9
2023-09-19T06:46:03,42.805,6.029,0.005,0.016,-0.006,102.0,102.0,101.0,13.4,1505.2,341.9,-0.8,1.8,2471.463,13.29,0.016,17.4
2023-09-19T06:49:03,42.805,6.029,0.007,-0.01,-0.009,101.0,104.0,102.0,13.4,1505.2,349.0,-0.8,1.8,2471.503,13.29,0.012,145.0
2023-09-19T06:52:03,42.805,6.029,-0.001,0.016,-0.012,102.0,102.0,102.0,13.4,1505.2,338.6,-0.8,1.8,2471.51,13.29,0.016,356.4
2023-09-19T06:55:03,42.805,6.029,-0.014,0.03,0.001,102.0,103.0,101.0,13.3,1505.2,348.6,-0.7,1.9,2471.524,13.29,0.033,335.0
2023-09-19T06:58:03,42.805,6.029,-0.005,0.004,-0.028,102.0,102.0,101.0,13.4,1505.2,331.1,-0.8,1.8,2471.486,13.29,0.006,308.7
2023-09-19T07:04:03,42.805,6.029,0.006,0.009,-0.004,102.0,102.0,101.0,13.3,1505.2,351.0,-0.7,1.8,2471.55,13.29,0.01,33.7
2023-09-19T07:07:03,42.805,6.029,-0.005,0.016,-0.018,103.0,102.0,102.0,13.3,1505.2,355.7,-0.8,1.8,2471.548,13.29,0.016,342.6
2023-09-19T07:10:03,42.805,6.029,-0.014,-0.001,-0.018,102.0,103.0,102.0,13.4,1505.2,333.8,-0.8,1.8,2471.543,13.29,0.014,265.9
2023-09-19T07:13:03,42.805,6.029,-0.002,0.031,-0.014,102.0,102.0,101.0,13.4,1505.2,354.5,-0.8,1.8,2471.535,13.29,0.031,356.3
2023-09-19T07:16:03,42.805,6.029,-0.021,-0.013,-0.045,102.0,101.0,101.0,13.4,1505.2,329.4,-0.8,1.8,2471.525,13.29,0.024,238.2
2023-09-19T07:19:03,42.805,6.029,-0.028,0.034,-0.022,103.0,102.0,101.0,13.4,1505.2,329.3,-0.8,1.8,2471.537,13.29,0.044,320.5
2023-09-19T07:22:03,42.805,6.029,-0.006,0.032,0.016,102.0,102.0,101.0,13.3,1505.2,335.3,-0.8,1.8,2471.532,13.29,0.032,349.4
2023-09-19T07:25:03,42.805,6.029,-0.028,-0.001,-0.072,102.0,102.0,101.0,13.4,1505.2,339.6,-0.8,1.8,2471.556,13.29,0.028,268.0
2023-09-19T07:28:03,42.805,6.029,-0.018,0.019,-0.025,101.0,103.0,101.0,13.4,1505.2,352.8,-0.7,1.8,2471.548,13.29,0.026,316.5
2023-09-19T07:31:03,42.805,6.029,-0.007,0.007,0.001,105.0,101.0,102.0,13.4,1505.2,330.2,-0.8,1.8,2471.52,13.29,0.009,315.0
2023-09-19T07:34:03,42.805,6.029,-0.033,0.021,-0.05,103.0,102.0,101.0,13.4,1505.2,345.9,-0.8,1.8,2471.583,13.29,0.039,302.5
2023-09-19T07:37:03,42.805,6.029,-0.007,0.052,0.014,102.0,103.0,101.0,13.4,1505.2,350.7,-0.7,1.8,2471.527,13.29,0.052,352.3
2023-09-19T07:40:03,42.805,6.029,-0.007,0.014,-0.014,103.0,102.0,102.0,13.4,1505.2,345.5,-0.8,1.8,2471.541,13.29,0.015,333.4
2023-09-19T07:43:03,42.805,6.029,-0.018,0.002,-0.05,103.0,103.0,101.0,13.4,1505.2,356.7,-0.7,1.8,2471.561,13.29,0.018,276.3
2023-09-19T07:46:03,42.805,6.029,-0.005,0.02,-0.006,103.0,102.0,101.0,13.4,1505.2,351.0,-0.8,1.8,2471.542,13.29,0.02,346.0
2023-09-19T07:49:03,42.805,6.029,-0.03,0.012,-0.007,103.0,102.0,101.0,13.3,1505.2,333.8,-0.8,1.8,2471.556,13.29,0.032,291.8
2023-09-19T07:52:03,42.805,6.029,-0.01,0.017,-0.022,102.0,103.0,102.0,13.3,1505.2,328.2,-0.8,1.8,2471.55,13.29,0.019,329.5
2023-09-19T07:55:03,42.805,6.029,-0.021,0.023,-0.035,103.0,103.0,101.0,13.4,1505.2,343.7,-0.7,1.8,2471.568,13.29,0.031,317.6
2023-09-19T07:58:03,42.805,6.029,-0.007,0.003,-0.032,103.0,103.0,102.0,13.4,1505.2,342.8,-0.8,1.8,2471.525,13.29,0.007,293.2
2023-09-19T08:04:03,42.805,6.029,-0.01,0.008,-0.029,103.0,101.0,102.0,13.4,1505.2,356.8,-0.8,1.8,2471.571,13.29,0.012,308.7
2023-09-19T08:07:03,42.805,6.029,0.009,0.042,-0.017,102.0,102.0,103.0,13.3,1505.2,347.3,-0.8,1.8,2471.608,13.29,0.042,12.1
2023-09-19T08:10:03,42.805,6.029,-0.011,0.022,-0.003,103.0,102.0,101.0,13.4,1505.2,334.3,-0.8,1.8,2471.605,13.29,0.024,333.4
2023-09-19T08:13:03,42.805,6.029,-0.013,0.013,-0.026,102.0,102.0,101.0,13.4,1505.2,355.6,-0.8,1.8,2471.6,13.29,0.018,315.0
2023-09-19T08:16:03,42.805,6.029,-0.004,-0.001,-0.036,103.0,102.0,101.0,13.4,1505.2,344.0,-0.8,1.8,2471.581,13.29,0.004,256.0
2023-09-19T08:19:03,42.805,6.029,-0.03,0.026,-0.026,103.0,102.0,101.0,13.3,1505.2,340.4,-0.8,1.8,2471.535,13.29,0.039,310.9
2023-09-19T08:22:03,42.805,6.029,-0.021,-0.011,-0.018,102.0,102.0,100.0,13.4,1505.2,339.3,-0.7,1.8,2471.62,13.29,0.023,242.4
2023-09-19T08:25:03,42.805,6.029,-0.023,0.021,-0.03,103.0,102.0,101.0,13.4,1505.2,351.7,-0.7,1.8,2471.585,13.29,0.031,312.4
2023-09-19T08:28:03,42.805,6.029,-0.048,0.018,-0.029,102.0,101.0,101.0,13.4,1505.2,351.7,-0.7,1.8,2471.602,13.29,0.051,290.6
2023-09-19T08:31:03,42.805,6.029,-0.012,0.019,-0.033,103.0,103.0,101.0,13.4,1505.2,343.6,-0.8,1.8,2471.58,13.29,0.022,327.7
2023-09-19T08:34:03,42.805,6.029,-0.032,0.008,-0.024,103.0,102.0,101.0,13.3,1505.2,335.4,-0.8,1.8,2471.592,13.29,0.032,284.0
2023-09-19T08:37:03,42.805,6.029,-0.009,0.02,-0.03,103.0,103.0,101.0,13.4,1505.2,348.9,-0.7,1.8,2471.572,13.29,0.021,335.8
2023-09-19T08:40:03,42.805,6.029,-0.031,0.027,-0.018,102.0,104.0,101.0,13.4,1505.2,347.8,-0.8,1.8,2471.578,13.29,0.041,311.1
2023-09-19T08:43:03,42.805,6.029,-0.009,-0.013,-0.06,103.0,102.0,101.0,13.4,1505.2,338.5,-0.8,1.8,2471.591,13.29,0.015,214.7
2023-09-19T08:46:03,42.805,6.029,-0.006,0.007,-0.006,103.0,103.0,101.0,13.3,1505.2,341.2,-0.8,1.8,2471.558,13.29,0.009,319.4
2023-09-19T08:49:03,42.805,6.029,-0.014,0.01,-0.007,103.0,102.0,101.0,13.3,1505.2,335.1,-0.8,1.8,2471.583,13.29,0.017,305.5
2023-09-19T08:52:03,42.805,6.029,-0.016,0.038,0.016,104.0,102.0,101.0,13.4,1505.2,331.6,-0.8,1.8,2471.607,13.29,0.041,337.2
2023-09-19T08:55:03,42.805,6.029,-0.009,0.024,-0.024,102.0,102.0,101.0,13.4,1505.2,349.8,-0.7,1.8,2471.615,13.29,0.025,339.4
2023-09-19T08:58:03,42.805,6.029,-0.035,0.021,-0.048,103.0,102.0,101.0,13.4,1505.2,331.0,-0.8,1.8,2471.596,13.29,0.04,301.0
2023-09-19T09:04:03,42.805,6.029,-0.02,0.031,0.007,102.0,102.0,101.0,13.4,1505.2,345.9,-0.8,1.8,2471.628,13.29,0.036,327.2
2023-09-19T09:07:03,42.805,6.029,-0.023,0.027,-0.016,103.0,102.0,101.0,13.3,1505.2,328.0,-0.8,1.8,2471.623,13.29,0.035,319.6
2023-09-19T09:10:03,42.805,6.029,-0.011,-0.004,-0.019,102.0,102.0,101.0,13.4,1505.2,328.2,-0.8,1.8,2471.59,13.29,0.011,250.0
2023-09-19T09:13:03,42.805,6.029,-0.017,0.023,-0.01,102.0,101.0,102.0,13.4,1505.2,336.0,-0.7,1.9,2471.617,13.29,0.028,323.5
2023-09-19T09:16:03,42.805,6.029,-0.065,0.027,-0.017,102.0,102.0,101.0,13.4,1505.2,327.8,-0.8,1.8,2471.607,13.29,0.07,292.6
2023-09-19T09:19:03,42.805,6.029,-0.009,0.038,0.015,102.0,102.0,101.0,13.4,1505.2,353.0,-0.8,1.8,2471.629,13.29,0.039,346.7
2023-09-19T09:22:03,42.805,6.029,-0.032,0.018,-0.018,102.0,102.0,100.0,13.4,1505.2,330.2,-0.8,1.8,2471.608,13.29,0.036,299.4
2023-09-19T09:25:03,42.805,6.029,-0.012,0.03,0.012,103.0,102.0,101.0,13.4,1505.2,330.2,-0.8,1.8,2471.594,13.29,0.032,338.2
2023-09-19T09:28:03,42.805,6.029,-0.009,0.029,0.007,102.0,104.0,101.0,13.4,1505.2,353.0,-0.8,1.8,2471.594,13.29,0.03,342.8
2023-09-19T09:31:03,42.805,6.029,-0.02,0.043,-0.017,102.0,102.0,101.0,13.4,1505.2,348.9,-0.7,1.8,2471.568,13.29,0.047,335.1
2023-09-19T09:34:03,42.805,6.029,-0.015,0.025,-0.033,103.0,102.0,101.0,13.4,1505.2,333.9,-0.7,1.8,2471.625,13.29,0.029,329.0
2023-09-19T09:37:03,42.805,6.029,-0.013,0.035,-0.036,101.0,102.0,101.0,13.3,1505.2,344.5,-0.8,1.8,2471.585,13.29,0.037,339.6
2023-09-19T09:40:03,42.805,6.029,-0.013,0.027,-0.031,102.0,102.0,101.0,13.4,1505.2,337.5,-0.8,1.8,2471.577,13.29,0.029,334.3
2023-09-19T09:43:03,42.805,6.029,0.0,0.016,0.0,102.0,102.0,100.0,13.4,1505.2,336.9,-0.8,1.8,2471.616,13.29,0.016,0.0
2023-09-19T09:46:03,42.805,6.029,-0.03,0.057,0.015,102.0,102.0,101.0,13.3,1505.2,346.2,-0.8,1.8,2471.582,13.29,0.064,332.2
2023-09-19T09:49:03,42.805,6.029,-0.024,0.032,0.01,101.0,102.0,100.0,13.4,1505.2,337.3,-0.7,1.8,2471.589,13.29,0.04,323.1
2023-09-19T09:52:03,42.805,6.029,-0.037,0.016,-0.033,102.0,102.0,101.0,13.4,1505.2,331.4,-0.8,1.8,2471.553,13.29,0.04,293.4
2023-09-19T09:55:03,42.805,6.029,-0.016,0.032,0.0,102.0,103.0,101.0,13.4,1505.2,343.2,-0.7,1.8,2471.61,13.29,0.035,333.4
2023-09-19T09:58:03,42.805,6.029,-0.001,0.027,-0.01,102.0,102.0,101.0,13.4,1505.2,340.0,-0.7,1.8,2471.579,13.29,0.027,357.9